CW8593 Weather Reports


Display with metric or nautical units.
time (UTC)temp
F
wind
direction
speed
MPH
gust
MPH
rain 1hr
in
rain 24hr
in
rain mn
in
humidity
%
barometer
mb
20160928100708 75 73 3.0 7.0 0.00 0.02 0.00 50 1028.5
20160928095707 75 46 5.0 8.0 0.00 0.02 0.00 51 1028.6
20160928095208 74 63 2.0 7.0 0.00 0.02 0.00 51 1028.7
20160928094708 74 61 5.0 12.0 0.00 0.02 0.00 51 1028.5
20160928094208 74 54 6.0 12.0 0.00 0.02 0.00 52 1028.5
20160928092707 74 24 4.0 8.0 0.00 0.02 0.00 51 1028.5
20160928091208 73 65 2.0 8.0 0.00 0.02 0.00 52 1028.4
20160928090708 73 49 4.0 9.0 0.00 0.02 0.00 51 1028.4
20160928090208 73 58 5.0 9.0 0.00 0.02 0.00 51 1028.4
20160928085708 73 60 3.0 8.0 0.00 0.02 0.00 51 1028.4
20160928083707 72 3 5.0 8.0 0.00 0.02 0.00 54 1028.3
20160928083207 72 5 5.0 8.0 0.00 0.02 0.00 54 1028.2
20160928082708 72 11 5.0 7.0 0.00 0.02 0.00 54 1028.0
20160928081707 71 2 5.0 9.0 0.00 0.02 0.00 55 1028.0
20160928081207 71 2 5.0 12.0 0.00 0.02 0.00 55 1028.0
20160928080707 71 2 7.0 12.0 0.00 0.02 0.00 55 1027.8
20160928080208 71 16 6.0 12.0 0.00 0.02 0.00 54 1027.8
20160928075708 71 344 3.0 12.0 0.00 0.02 0.00 56 1027.8
20160928074707 70 2 3.0 7.0 0.00 0.02 0.00 58 1027.5
20160928074207 70 349 3.0 9.0 0.00 0.02 0.00 59 1027.5
20160928073708 70 351 5.0 8.0 0.00 0.02 0.00 60 1027.4
20160928072707 69 334 5.0 12.0 0.00 0.02 0.00 62 1027.2
20160928071707 69 358 6.0 10.0 0.00 0.02 0.00 62 1027.2
20160928065208 68 349 5.0 12.0 0.00 0.02 0.00 66 1026.8
20160928063707 67 349 5.0 9.0 0.00 0.02 0.00 69 1026.8
20160928062707 67 344 0.0 2.0 0.00 0.02 0.00 71 1026.3
20160928062207 66 344 0.0 1.0 0.00 0.02 0.00 71 1026.3
20160928061707 66 344 0.0 5.0 0.00 0.02 0.00 71 1026.3
20160928061207 66 346 1.0 3.0 0.00 0.02 0.00 71 1026.3
20160928060208 66 346 3.0 5.0 0.00 0.02 0.00 71 1026.1
20160928055707 66 346 2.0 7.0 0.00 0.02 0.00 71 1026.1
20160928055208 66 311 3.0 7.0 0.00 0.02 0.00 71 1026.1
20160928054707 66 316 5.0 7.0 0.00 0.02 0.00 71 1026.1
20160928054207 66 311 3.0 7.0 0.00 0.02 0.00 71 1026.1
20160928051708 67 299 3.0 7.0 0.00 0.02 0.00 71 1025.9
20160928050217 67 330 2.0 5.0 0.00 0.02 0.00 72 1025.9
20160928045708 67 343 1.0 7.0 0.00 0.02 0.00 73 1025.8
20160928044208 67 335 4.0 8.0 0.00 0.02 0.00 75 1025.8
20160928043207 67 315 3.0 7.0 0.00 0.02 0.00 75 1025.8
20160928042708 67 337 2.0 6.0 0.00 0.02 0.00 75 1025.6
20160928042207 67 338 3.0 7.0 0.00 0.02 0.00 75 1025.6
20160928040707 67 343 3.0 9.0 0.00 0.02 0.00 75 1025.6
20160928040207 67 336 3.0 7.0 0.00 0.02 0.00 75 1025.6
20160928035207 68 335 1.0 5.0 0.00 0.02 0.00 75 1025.6
20160928033708 68 354 4.0 9.0 0.00 0.02 0.00 76 1025.5
20160928032708 67 359 2.0 6.0 0.00 0.02 0.00 78 1025.2
20160928030707 67 300 3.0 7.0 0.00 0.02 0.00 79 1025.2
20160928025707 67 329 3.0 6.0 0.00 0.02 0.00 79 1025.2
20160928025207 67 321 2.0 6.0 0.00 0.02 0.00 79 1025.2
20160928024707 67 320 3.0 9.0 0.00 0.02 0.00 80 1025.2
20160928022207 67 303 5.0 9.0 0.00 0.02 0.00 80 1025.2
20160928015707 67 309 2.0 5.0 0.00 0.02 0.00 81 1025.4
20160928015207 67 302 3.0 7.0 0.00 0.02 0.00 80 1025.5
20160928014708 67 309 3.0 6.0 0.00 0.02 0.00 80 1025.5
20160928014208 68 302 3.0 6.0 0.00 0.02 0.00 80 1025.5
20160928013708 68 297 0.0 6.0 0.00 0.02 0.00 80 1025.5
20160928013207 67 297 4.0 6.0 0.00 0.02 0.00 81 1025.5
20160928012207 67 301 3.0 7.0 0.00 0.02 0.00 82 1025.6
20160928011707 67 336 0.0 2.0 0.00 0.02 0.00 82 1025.6
20160928010207 67 318 2.0 5.0 0.00 0.02 0.00 82 1025.6
20160928005707 67 311 3.0 6.0 0.00 0.02 0.00 82 1025.6
20160928005208 68 344 3.0 5.0 0.00 0.02 0.00 82 1025.6
20160928004207 68 344 2.0 3.0 0.00 0.02 0.00 83 1025.5
20160928002707 68 344 0.0 1.0 0.00 0.02 0.00 84 1025.5
20160928001707 68 344 0.0 3.0 0.00 0.02 0.00 84 1025.5
20160928001207 68 344 2.0 5.0 0.00 0.02 0.00 84 1025.5
20160928000708 68 344 1.0 3.0 0.00 0.02 0.00 84 1025.4
20160927235707 68 344 0.0 0.0 0.01 0.02 0.02 84 1025.4
20160927234706 68 343 1.0 3.0 0.01 0.02 0.02 84 1025.3
20160927233707 67 345 4.0 5.0 0.01 0.02 0.02 84 1025.3
20160927232707 67 350 2.0 6.0 0.01 0.02 0.02 84 1025.3
20160927231707 68 315 0.0 2.0 0.01 0.02 0.02 84 1025.3
20160927230707 68 315 4.0 6.0 0.01 0.02 0.02 82 1025.3
20160927230207 69 319 0.0 3.0 0.01 0.02 0.02 82 1025.4
20160927225707 68 319 0.0 1.0 0.00 0.01 0.01 82 1025.4
20160927224207 68 319 2.0 3.0 0.01 0.01 0.01 82 1025.6
20160927223207 68 311 0.0 1.0 0.01 0.01 0.01 82 1025.5
20160927222207 69 311 0.0 2.0 0.01 0.01 0.01 82 1025.4
20160927221707 69 311 2.0 3.0 0.01 0.01 0.01 82 1025.4
20160927221207 69 311 0.0 3.0 0.01 0.01 0.01 81 1025.4
20160927214707 70 86 0.0 2.0 0.00 0.00 0.00 76 1025.7
20160927214207 70 86 0.0 1.0 0.00 0.00 0.00 76 1025.7
20160927213707 70 86 0.0 1.0 0.00 0.00 0.00 75 1025.7
20160927211707 71 56 4.0 9.0 0.00 0.00 0.00 72 1025.5
20160927210207 72 96 6.0 10.0 0.00 0.00 0.00 70 1025.3
20160927205707 72 75 5.0 9.0 0.00 0.00 0.00 69 1025.3
20160927205207 72 104 2.0 7.0 0.00 0.00 0.00 69 1025.4
20160927204707 73 100 6.0 12.0 0.00 0.00 0.00 67 1025.4
20160927204208 73 136 3.0 6.0 0.00 0.00 0.00 66 1025.4
20160927202707 73 163 0.0 1.0 0.00 0.00 0.00 66 1025.2
20160927202207 74 163 0.0 1.0 0.00 0.00 0.00 65 1025.0
20160927201207 73 163 1.0 3.0 0.00 0.00 0.00 65 1025.1
20160927200207 73 163 1.0 3.0 0.00 0.00 0.00 65 1025.0
20160927195707 73 163 0.0 2.0 0.00 0.00 0.00 65 1025.0
20160927195207 73 163 1.0 3.0 0.00 0.00 0.00 66 1024.9
20160927193707 73 163 0.0 2.0 0.00 0.00 0.00 65 1024.8
20160927192707 73 163 2.0 3.0 0.00 0.00 0.00 65 1024.5
20160927192207 73 163 1.0 3.0 0.00 0.00 0.00 65 1024.5
20160927191706 73 163 1.0 5.0 0.00 0.00 0.00 65 1024.5
20160927191206 74 162 1.0 3.0 0.00 0.00 0.00 65 1024.5
20160927190707 74 162 1.0 3.0 0.00 0.00 0.00 64 1024.4
20160927185206 74 182 2.0 3.0 0.00 0.00 0.00 64 1024.3
20160927183707 74 184 1.0 3.0 0.00 0.00 0.00 63 1024.0
20160927181706 73 184 2.0 3.0 0.00 0.00 0.00 62 1024.0
20160927181207 73 184 1.0 3.0 0.00 0.00 0.00 62 1023.8
20160927180707 73 184 1.0 3.0 0.00 0.00 0.00 62 1023.8
20160927173707 74 168 2.0 5.0 0.00 0.00 0.00 63 1023.8
20160927164206 74 175 3.0 8.0 0.00 0.00 0.00 61 1023.1
20160927163206 75 175 2.0 7.0 0.00 0.00 0.00 60 1023.1
20160927161707 74 207 4.0 12.0 0.00 0.00 0.00 61 1023.0
20160927161207 74 164 4.0 10.0 0.00 0.00 0.00 60 1022.9
20160927160716 75 206 1.0 9.0 0.00 0.00 0.00 60 1022.8
20160927155217 75 199 5.0 9.0 0.00 0.00 0.00 59 1022.8
20160927154707 75 201 3.0 7.0 0.00 0.00 0.00 59 1022.8
20160927152206 74 164 4.0 12.0 0.00 0.00 0.00 59 1022.7
20160927151206 75 165 2.0 9.0 0.00 0.00 0.00 59 1022.7
20160927150706 75 205 6.0 14.0 0.00 0.00 0.00 59 1022.7
20160927145207 75 162 6.0 12.0 0.00 0.00 0.00 59 1022.8
20160927144707 75 224 2.0 12.0 0.00 0.00 0.00 58 1022.8
20160927144206 75 228 3.0 7.0 0.00 0.00 0.00 58 1022.8
20160927143706 75 177 5.0 9.0 0.00 0.00 0.00 58 1022.8
20160927142708 75 180 2.0 6.0 0.00 0.00 0.00 59 1022.8
20160927142206 75 182 5.0 12.0 0.00 0.00 0.00 58 1022.9
20160927141215 75 150 3.0 10.0 0.00 0.00 0.00 58 1022.9
20160927135707 75 173 5.0 12.0 0.00 0.00 0.00 58 1023.0
20160927133706 75 136 6.0 12.0 0.00 0.00 0.00 59 1023.1
20160927132706 75 187 4.0 12.0 0.00 0.00 0.00 58 1023.1
20160927125706 75 133 5.0 9.0 0.00 0.00 0.00 58 1023.4
20160927125211 75 148 5.0 10.0 0.00 0.00 0.00 58 1023.4
20160927124707 75 139 5.0 9.0 0.00 0.00 0.00 58 1023.4
20160927124207 75 146 5.0 12.0 0.00 0.00 0.00 57 1023.4
20160927120706 75 129 5.0 12.0 0.00 0.00 0.00 57 1023.8
20160927115707 74 117 6.0 12.0 0.00 0.00 0.00 58 1023.8
20160927115207 75 123 6.0 12.0 0.00 0.00 0.00 57 1023.8
20160927113216 74 144 7.0 12.0 0.00 0.00 0.00 56 1024.1
20160927111707 75 143 5.0 9.0 0.00 0.00 0.00 55 1024.1
20160927111206 75 149 5.0 9.0 0.00 0.00 0.00 57 1024.0
20160927105707 75 95 5.0 9.0 0.00 0.00 0.00 55 1024.1
20160927105206 75 109 5.0 12.0 0.00 0.00 0.00 56 1024.1
20160927104206 74 83 3.0 10.0 0.00 0.00 0.00 56 1024.1
20160927103706 74 102 7.0 14.0 0.00 0.00 0.00 56 1024.0
20160927103216 74 113 3.0 10.0 0.00 0.00 0.00 56 1024.0
20160927102707 74 112 6.0 10.0 0.00 0.00 0.00 55 1024.0